232  
ASUS44 KJAN 172310  
RWRMS  
 
MISSISSIPPI HOURLY WEATHER ROUNDUP  
NATIONAL WEATHER SERVICE JACKSON MS  
500 PM CST THU JAN 17 2019  
 
NOTE: "FAIR: INDICATES FEW OR NO CLOUDS BELOW 12,000 FEET WITH NO  
SIGNIFICANT WEATHER AND/OR S TO VISIBILITY
.  
 
MSZ001>002-007>008-010>013-018>021-025>028-034>036-180000-  
NORTHWEST MISSISSIPPI  
 
CITY SKY/WX TMP DP RH WIND PRES REMARKS
 
BATESVILLE CLOUDY 54 52 94 W5 30.05S FOG  
CLARKSDALE CLOUDY 57 57 100 SW3 30.06R  
CLEVELAND CLOUDY 56 56 100 SW7 30.06S  
GREENWOOD CLOUDY 56 54 93 SW5 30.07R  
GREENVILLE FAIR 55 53 93 W3 30.06R  
OLIVE BRANCH FOG 50 50 100 SW5 30.04S VSB 1  
OXFORD CLOUDY 52 52 100 W5 30.07R FOG  
TUNICA N/A 52 52 100 S3 30.06S  
WINONA CLOUDY 54 54 100 CALM 30.08R  

 
 
MSZ003>006-009-014>017-022>024-029>033-037>039-180000-  
NORTHEAST MISSISSIPPI  
 
CITY SKY/WX TMP DP RH WIND PRES REMARKS
 
ABERDEEN CLOUDY 50 52 100 S6 30.09R FOG  
COLUMBUS AFB CLOUDY 52 51 95 S6 30.08R  
CORINTH CLOUDY 52 50 93 SW6 30.05S FOG  
GOLDN TRIANGLE CLOUDY 52 52 100 S7 30.09S  
STARKVILLE CLOUDY 52 52 100 S3 30.09R  
TUPELO CLOUDY 53 51 93 S6 30.06S FOG  

 
 
MSZ040-058-180000-  
CENTRAL MISSISSIPPI  
 
CITY SKY/WX TMP DP RH WIND PRES REMARKS
 
JACKSON INTL LGT RAIN 57 54 89 S5 30.10R  
JACKSON HAWKNS CLOUDY 57 55 93 CALM 30.10R  
MADISON CLOUDY 54 54 100 CALM 30.09R  
MERIDIAN KEY LGT RAIN 54 51 90 S8 30.11S  
MERIDIAN NAS LGT RAIN 56 52 86 SW5 30.11S  
RAYMOND CLOUDY 59 59 100 E3 30.08S  
VICKSBURG VKS CLOUDY 61 59 94 CALM 30.08R  

 
 
MSZ059>079-180000-  
SOUTH MISSISSIPPI  
 
CITY SKY/WX TMP DP RH WIND PRES REMARKS
 
COLUMBIA RAIN 57 55 94 S3 30.15S  
HATTIESBURG CLOUDY 58 54 86 S6 30.12F  
LAUREL CLOUDY 55 53 93 S5 30.12S  
MCCOMB CLOUDY 60 55 83 SE3 30.10R  
NATCHEZ FAIR 66 60 81 SW7 30.07S  
PINE BELT CLOUDY 56 55 97 SE5 30.12S  

 
 
MSZ080>082-180000-  
COASTAL MISSISSIPPI  
 
CITY SKY/WX TMP DP RH WIND PRES REMARKS
 
BILOXI CLOUDY 58 53 83 SE6 30.13F  
PASCAGOULA CLOUDY 60 52 74 SE6 30.14F  
GULFPORT CLOUDY 57 53 86 SE6 30.13F  

 
 
LAZ007>009-015>016-023>026-180000-  
NORTHEAST LOUISIANA  
 
CITY SKY/WX TMP DP RH WIND PRES REMARKS
 
BASTROP MOCLDY 60 60 99 CALM 30.07S  
TALLULAH/VBURG CLOUDY 58 56 93 S3 30.08S  
VIDALIA MOCLDY 63 60 89 CALM 30.06R  

 
 
 
CLICK HERE TO GO TO PREVIOUS BULLETINS.

The Nexlab MS Page Main Text Page